• In Kazakhstan
  • List of Countries
  • For 7 days
  • Water Temperature
  • Weather Map
  • News
  • Weather Widgets
  • user-avatar
    Login

    Hourly Weather Shkoder

    Today, 22 August, Thursday

    Time Temperature Precipitation Wind Pressure Humidity
    00:00 +26°C° 0 mm 3 mps 742 mmHg 41%
    01:00 +25°C° 0 mm 3 mps 742 mmHg 40%
    02:00 +25°C° 0 mm 3 mps 742 mmHg 40%
    03:00 +24°C° 0 mm 3 mps 742 mmHg 40%
    04:00 +24°C° 0 mm 3 mps 742 mmHg 40%
    05:00 +26°C° 0 mm 3 mps 742 mmHg 37%
    06:00 +27°C° 0 mm 3 mps 742 mmHg 35%
    07:00 +29°C° 0 mm 2 mps 743 mmHg 32%
    08:00 +31°C° 0 mm 3 mps 743 mmHg 29%
    09:00 +34°C° 0 mm 3 mps 743 mmHg 26%
    10:00 +36°C° 0 mm 3 mps 743 mmHg 22%
    11:00 +37°C° 0 mm 3 mps 742 mmHg 21%
    12:00 +38°C° 0 mm 3 mps 742 mmHg 20%
    13:00 +38°C° 0 mm 3 mps 742 mmHg 19%
    14:00 +38°C° 0 mm 3 mps 742 mmHg 20%
    15:00 +38°C° 0 mm 3 mps 741 mmHg 21%
    16:00 +38°C° 0 mm 2 mps 741 mmHg 21%
    17:00 +35°C° 0 mm 2 mps 741 mmHg 26%
    18:00 +31°C° 0 mm 2 mps 741 mmHg 31%
    19:00 +29°C° 0 mm 2 mps 742 mmHg 36%
    20:00 +28°C° 0 mm 2 mps 742 mmHg 37%
    21:00 +28°C° 0 mm 3 mps 742 mmHg 38%
    22:00 +27°C° 0 mm 3 mps 742 mmHg 39%
    23:00 +27°C° 0 mm 3 mps 742 mmHg 40%

    Tomorrow, 23 August, Friday

    Time Temperature Precipitation Wind Pressure Humidity
    00:00 +26°C° 0 mm 3 mps 742 mmHg 42%
    01:00 +26°C° 0 mm 3 mps 742 mmHg 43%
    02:00 +25°C° 0 mm 3 mps 742 mmHg 44%
    03:00 +25°C° 0 mm 2 mps 742 mmHg 46%
    04:00 +25°C° 0 mm 2 mps 742 mmHg 47%
    05:00 +26°C° 0 mm 2 mps 742 mmHg 44%
    06:00 +28°C° 0 mm 2 mps 742 mmHg 41%
    07:00 +29°C° 0 mm 2 mps 743 mmHg 38%
    08:00 +32°C° 0 mm 2 mps 743 mmHg 34%
    09:00 +35°C° 0 mm 2 mps 743 mmHg 30%
    10:00 +37°C° 0 mm 2 mps 743 mmHg 26%
    11:00 +37°C° 0 mm 2 mps 742 mmHg 26%
    12:00 +37°C° 0 mm 2 mps 742 mmHg 25%
    13:00 +37°C° 0 mm 2 mps 742 mmHg 25%
    14:00 +37°C° 0 mm 2 mps 742 mmHg 26%
    15:00 +36°C° 0 mm 2 mps 741 mmHg 27%
    16:00 +36°C° 0 mm 2 mps 741 mmHg 28%
    17:00 +34°C° 0 mm 2 mps 741 mmHg 31%
    18:00 +32°C° 0 mm 2 mps 741 mmHg 35%
    19:00 +30°C° 0 mm 2 mps 741 mmHg 38%
    20:00 +29°C° 0 mm 2 mps 741 mmHg 39%
    21:00 +29°C° 0 mm 2 mps 742 mmHg 40%
    22:00 +28°C° 0 mm 2 mps 742 mmHg 41%
    23:00 +28°C° 0 mm 2 mps 742 mmHg 43%

    Day after tomorrow, 24 August, Saturday

    Time Temperature Precipitation Wind Pressure Humidity
    00:00 +27°C° 0 mm 2 mps 742 mmHg 45%
    01:00 +27°C° 0 mm 2 mps 742 mmHg 47%
    02:00 +27°C° 0 mm 2 mps 741 mmHg 48%
    03:00 +26°C° 0 mm 2 mps 741 mmHg 48%
    04:00 +26°C° 0 mm 2 mps 741 mmHg 48%
    05:00 +27°C° 0 mm 2 mps 741 mmHg 46%
    06:00 +28°C° 0 mm 2 mps 741 mmHg 44%
    07:00 +29°C° 0 mm 2 mps 741 mmHg 42%
    08:00 +31°C° 0 mm 2 mps 741 mmHg 37%
    09:00 +34°C° 0 mm 2 mps 742 mmHg 32%
    10:00 +36°C° 0 mm 2 mps 742 mmHg 27%
    11:00 +36°C° 0 mm 2 mps 741 mmHg 27%
    12:00 +37°C° 0 mm 2 mps 741 mmHg 26%
    13:00 +37°C° 0 mm 3 mps 741 mmHg 26%
    14:00 +36°C° 0 mm 2 mps 740 mmHg 28%
    15:00 +35°C° 0 mm 2 mps 740 mmHg 30%
    16:00 +35°C° 0 mm 2 mps 740 mmHg 33%
    17:00 +32°C° 0 mm 2 mps 740 mmHg 37%
    18:00 +30°C° 0 mm 2 mps 740 mmHg 41%
    19:00 +28°C° 0 mm 1 mps 740 mmHg 45%
    20:00 +28°C° 0 mm 2 mps 740 mmHg 46%
    21:00 +28°C° 0 mm 2 mps 741 mmHg 48%
    22:00 +28°C° 0 mm 2 mps 741 mmHg 49%
    23:00 +27°C° 0 mm 2 mps 741 mmHg 49%

    25 August, Sunday

    Time Temperature Precipitation Wind Pressure Humidity
    00:00 +27°C° 0 mm 2 mps 740 mmHg 50%
    01:00 +27°C° 0 mm 2 mps 740 mmHg 50%
    02:00 +26°C° 0 mm 2 mps 740 mmHg 51%
    03:00 +26°C° 0 mm 2 mps 740 mmHg 52%
    04:00 +26°C° 0 mm 2 mps 740 mmHg 53%
    05:00 +26°C° 0.3 mm 1 mps 740 mmHg 53%
    06:00 +27°C° 0.3 mm 1 mps 740 mmHg 53%
    07:00 +28°C° 0.3 mm 1 mps 740 mmHg 53%
    08:00 +30°C° 0 mm 1 mps 740 mmHg 46%
    09:00 +33°C° 0 mm 1 mps 740 mmHg 38%
    10:00 +35°C° 0 mm 1 mps 740 mmHg 30%
    11:00 +36°C° 0 mm 2 mps 740 mmHg 30%
    12:00 +36°C° 0 mm 3 mps 740 mmHg 30%
    13:00 +36°C° 0 mm 3 mps 740 mmHg 30%
    14:00 +33°C° 0.4 mm 3 mps 740 mmHg 40%
    15:00 +30°C° 0.4 mm 3 mps 740 mmHg 50%
    16:00 +27°C° 0.4 mm 3 mps 740 mmHg 61%
    17:00 +26°C° 0.1 mm 3 mps 740 mmHg 61%
    18:00 +25°C° 0.1 mm 3 mps 740 mmHg 62%
    19:00 +25°C° 0.1 mm 2 mps 740 mmHg 63%
    20:00 +24°C° 0 mm 3 mps 740 mmHg 64%
    21:00 +24°C° 0 mm 3 mps 740 mmHg 65%
    22:00 +24°C° 0 mm 3 mps 741 mmHg 67%
    23:00 +22°C° 0 mm 3 mps 740 mmHg 67%

    26 August, Monday

    Time Temperature Precipitation Wind Pressure Humidity
    00:00 +22°C° 0 mm 3 mps 740 mmHg 67%
    01:00 +23°C° 0 mm 2 mps 740 mmHg 67%
    02:00 +23°C° 0 mm 2 mps 740 mmHg 65%
    03:00 +23°C° 0 mm 2 mps 740 mmHg 64%
    04:00 +23°C° 0 mm 2 mps 740 mmHg 63%
    05:00 +24°C° 0.1 mm 2 mps 740 mmHg 62%
    06:00 +25°C° 0.1 mm 2 mps 740 mmHg 61%
    07:00 +26°C° 0.1 mm 2 mps 740 mmHg 60%
    08:00 +29°C° 0 mm 2 mps 740 mmHg 51%
    09:00 +31°C° 0 mm 2 mps 740 mmHg 42%
    10:00 +34°C° 0 mm 1 mps 740 mmHg 32%
    11:00 +36°C° 0 mm 2 mps 740 mmHg 30%
    12:00 +36°C° 0 mm 2 mps 740 mmHg 28%
    13:00 +37°C° 0 mm 3 mps 740 mmHg 26%
    14:00 +34°C° 0.9 mm 3 mps 740 mmHg 38%
    15:00 +30°C° 0.9 mm 4 mps 740 mmHg 50%
    16:00 +27°C° 0.9 mm 4 mps 740 mmHg 61%
    17:00 +26°C° 0.3 mm 4 mps 740 mmHg 62%
    18:00 +25°C° 0.3 mm 3 mps 740 mmHg 63%
    19:00 +22°C° 0.3 mm 3 mps 740 mmHg 64%
    20:00 +22°C° 0 mm 3 mps 741 mmHg 65%
    21:00 +22°C° 0 mm 3 mps 741 mmHg 65%
    22:00 +23°C° 0 mm 2 mps 741 mmHg 65%
    23:00 +23°C° 0 mm 2 mps 741 mmHg 65%

    27 August, Tuesday

    Time Temperature Precipitation Wind Pressure Humidity
    00:00 +21°C° 0 mm 2 mps 741 mmHg 66%
    01:00 +21°C° 0 mm 2 mps 740 mmHg 66%
    02:00 +21°C° 0 mm 2 mps 740 mmHg 66%
    03:00 +21°C° 0 mm 2 mps 740 mmHg 65%
    04:00 +21°C° 0 mm 2 mps 740 mmHg 65%
    05:00 +23°C° 0 mm 2 mps 740 mmHg 61%
    06:00 +25°C° 0 mm 2 mps 741 mmHg 57%
    07:00 +26°C° 0 mm 2 mps 741 mmHg 53%
    08:00 +29°C° 0 mm 2 mps 741 mmHg 46%
    09:00 +31°C° 0 mm 1 mps 741 mmHg 39%
    10:00 +34°C° 0 mm 1 mps 741 mmHg 33%
    11:00 +35°C° 0 mm 2 mps 741 mmHg 31%
    12:00 +36°C° 0 mm 2 mps 741 mmHg 28%
    13:00 +37°C° 0 mm 2 mps 741 mmHg 26%
    14:00 +35°C° 0.1 mm 3 mps 741 mmHg 31%
    15:00 +34°C° 0.1 mm 3 mps 741 mmHg 36%
    16:00 +31°C° 0.1 mm 3 mps 740 mmHg 42%
    17:00 +29°C° 0.1 mm 2 mps 741 mmHg 49%
    18:00 +27°C° 0.1 mm 2 mps 741 mmHg 57%
    19:00 +25°C° 0.1 mm 2 mps 741 mmHg 65%
    20:00 +25°C° 0.2 mm 2 mps 741 mmHg 66%
    21:00 +24°C° 0.2 mm 2 mps 742 mmHg 67%
    22:00 +24°C° 0.2 mm 2 mps 742 mmHg 68%
    23:00 +24°C° 0 mm 2 mps 742 mmHg 67%
    Show more